Linn Creek, MO

11:07 AM CST on December 07, 2016 (GMT -0600)
Fine Memorial

Weather History for KAIZ - June, 2014

Change the Weather History Date:

Saturday, June 7, 2014

  Actual Average Record
Temperature  
Mean Temperature 71 °F -  
Max Temperature 78 °F 78 °F 93 °F (2011)
Min Temperature 64 °F 58 °F 44 °F (1998)
Cooling Degree Days 6    
Growing Degree Days 21 (Base 50)    
Moisture  
Dew Point 64 °F    
Average Humidity 81    
Maximum Humidity 94    
Minimum Humidity 61    
Precipitation  
Precipitation 0.00 in - - ()
Sea Level Pressure  
Sea Level Pressure 29.88 in    
Wind  
Wind Speed 6 mph (SSW)    
Max Wind Speed 17 mph    
Max Gust Speed 31 mph    
Visibility 8 miles    
Events Thunderstorm    
Averages and records for this station are not official NWS values.
T = Trace of Precipitation, MM = Missing Value Source: NWS Daily Summary

Daily Weather History Graph

Daily Weather History Graph

Search for Another Location

Airport or City:

Trip Planner

Search our weather history database for the weather conditions in past years. The results will help you decide how hot, cold, wet, or windy it might be!

Date:

Astronomy

Jun. 07, 2014 Rise Set
Actual Time 5:47 AM CDT 8:31 PM CDT
Civil Twilight 5:16 AM CDT 9:02 PM CDT
Nautical Twilight 4:37 AM CDT 9:41 PM CDT
Astronomical Twilight 3:53 AM CDT 10:25 PM CDT
Moon 2:54 PM CDT 2:03 AM CDT
Length of Visible Light 15h 46m
Length of Day
14h 43m
Waxing Gibbous, 68% of the Moon is Illuminated
Jun 7
Waxing Gibbous
Jun 12
Full
Jun 19
Last Quarter
Jun 27
New
Jul 5
First Quarter

Hourly Weather History & Observations

Time (CDT) Temp. Dew Point Humidity Pressure Visibility Wind Dir Wind Speed Gust Speed Precip Events Conditions
12:15 AM 71.6 °F 66.2 °F 83% 29.97 in 9.0 mi South 3.5 mph - N/A   Overcast
12:35 AM 69.8 °F 66.2 °F 88% 29.96 in 8.0 mi SE 3.5 mph - N/A   Overcast
12:55 AM 69.8 °F 66.2 °F 88% 29.95 in 7.0 mi ESE 3.5 mph - N/A   Overcast
1:15 AM 69.8 °F 66.2 °F 88% 29.94 in 5.0 mi ESE 4.6 mph - N/A   Mostly Cloudy
1:35 AM 69.8 °F 66.2 °F 88% 29.94 in 5.0 mi SE 3.5 mph - N/A   Clear
1:55 AM 69.8 °F 66.2 °F 88% 29.94 in 5.0 mi ESE 3.5 mph - N/A   Clear
2:15 AM 69.8 °F 66.2 °F 88% 29.95 in 5.0 mi SE 3.5 mph - N/A   Clear
2:35 AM 68.0 °F 66.2 °F 94% 29.95 in 4.0 mi ESE 3.5 mph - N/A   Clear
2:55 AM 68.0 °F 64.4 °F 88% 29.95 in 4.0 mi South 3.5 mph - N/A   Clear
3:15 AM 68.0 °F 64.4 °F 88% 29.95 in 3.0 mi East 3.5 mph - N/A   Clear
3:35 AM 68.0 °F 64.4 °F 88% 29.94 in 3.0 mi SE 3.5 mph - N/A   Mostly Cloudy
3:55 AM 68.0 °F 66.2 °F 94% 29.95 in 4.0 mi SSE 5.8 mph - N/A   Overcast
4:15 AM 68.0 °F 66.2 °F 94% 29.94 in 3.0 mi South 6.9 mph - N/A   Overcast
4:35 AM 68.0 °F 64.4 °F 88% 29.91 in 3.0 mi SE 4.6 mph - N/A   Scattered Clouds
4:55 AM 68.0 °F 64.4 °F 88% 29.90 in 3.0 mi SE 3.5 mph - N/A   Clear
5:15 AM 68.0 °F 64.4 °F 88% 29.90 in 2.5 mi SE 5.8 mph - N/A   Clear
5:35 AM 68.0 °F 64.4 °F 88% 29.92 in 3.0 mi SE 4.6 mph - N/A   Clear
5:55 AM 66.2 °F 64.4 °F 94% 29.90 in 2.0 mi ESE 3.5 mph - N/A   Clear
6:15 AM 68.0 °F 64.4 °F 88% 29.92 in 2.5 mi SE 3.5 mph - N/A   Mostly Cloudy
6:35 AM 68.0 °F 64.4 °F 88% 29.91 in 2.5 mi ESE 4.6 mph - N/A   Overcast
7:15 AM 68.0 °F 66.2 °F 94% 29.91 in 3.0 mi East 5.8 mph - N/A   Overcast
8:15 AM 68.0 °F 64.4 °F 88% 29.80 in 1.5 mi East 12.7 mph 17.3 mph N/A Thunderstorm Thunderstorm
8:35 AM 69.8 °F 66.2 °F 88% 29.87 in 4.0 mi South 12.7 mph - N/A   Scattered Clouds
8:55 AM 69.8 °F 66.2 °F 88% 29.89 in 3.0 mi South 8.1 mph - N/A Thunderstorm Mostly Cloudy
9:15 AM 66.2 °F 62.6 °F 88% 29.88 in 2.5 mi South 12.7 mph 18.4 mph N/A Thunderstorm Thunderstorm
9:35 AM 66.2 °F 62.6 °F 88% 29.87 in 9.0 mi SSE 8.1 mph - N/A   Mostly Cloudy
9:55 AM 66.2 °F 62.6 °F 88% 29.87 in 10.0 mi SSE 8.1 mph - N/A   Overcast
10:15 AM 66.2 °F 62.6 °F 88% 29.86 in 10.0 mi SSE 6.9 mph - N/A   Overcast
10:35 AM 66.2 °F 62.6 °F 88% 29.86 in 10.0 mi SSE 6.9 mph - N/A   Overcast
10:55 AM 66.2 °F 62.6 °F 88% 29.85 in 10.0 mi SSE 10.4 mph 16.1 mph N/A   Overcast
11:15 AM 68.0 °F 64.4 °F 88% 29.84 in 10.0 mi SSE 8.1 mph - N/A   Mostly Cloudy
11:35 AM 71.6 °F 66.2 °F 83% 29.83 in 10.0 mi South 9.2 mph 17.3 mph N/A   Scattered Clouds
11:55 AM 75.2 °F 69.8 °F 83% 29.82 in 10.0 mi SSW 13.8 mph - N/A   Mostly Cloudy
12:15 PM 75.2 °F 66.2 °F 73% 29.82 in 10.0 mi SW 12.7 mph 18.4 mph N/A   Overcast
12:35 PM 77.0 °F 64.4 °F 65% 29.81 in 10.0 mi WSW 13.8 mph 28.8 mph N/A   Mostly Cloudy
12:55 PM 77.0 °F 64.4 °F 65% 29.81 in 10.0 mi SW 11.5 mph 26.5 mph N/A   Overcast
1:15 PM 78.8 °F 64.4 °F 61% 29.81 in 10.0 mi WSW 17.3 mph 31.1 mph N/A   Mostly Cloudy
1:35 PM 78.8 °F 64.4 °F 61% 29.82 in 10.0 mi SW 17.3 mph 29.9 mph N/A   Overcast
1:55 PM 78.8 °F 64.4 °F 61% 29.80 in 10.0 mi WSW 17.3 mph 24.2 mph N/A   Mostly Cloudy
2:15 PM 78.8 °F 64.4 °F 61% 29.80 in 10.0 mi SW 12.7 mph 20.7 mph N/A   Overcast
2:35 PM 77.0 °F 64.4 °F 65% 29.79 in 10.0 mi SW 11.5 mph 21.9 mph N/A   Overcast
2:55 PM 77.0 °F 64.4 °F 65% 29.81 in 10.0 mi WSW 12.7 mph 21.9 mph N/A   Overcast
3:15 PM 71.6 °F 66.2 °F 83% 29.82 in 10.0 mi West 9.2 mph 17.3 mph N/A   Mostly Cloudy
3:35 PM 73.4 °F 66.2 °F 78% 29.82 in 10.0 mi West 13.8 mph 18.4 mph N/A   Scattered Clouds
3:55 PM 77.0 °F 66.2 °F 69% 29.82 in 10.0 mi West 11.5 mph 23.0 mph N/A   Mostly Cloudy
4:15 PM 75.2 °F 66.2 °F 73% 29.83 in 10.0 mi WNW 11.5 mph 21.9 mph N/A   Mostly Cloudy
4:35 PM 73.4 °F 64.4 °F 73% 29.83 in 10.0 mi WNW 9.2 mph 17.3 mph N/A   Mostly Cloudy
4:55 PM 73.4 °F 66.2 °F 78% 29.83 in 10.0 mi WNW 8.1 mph - N/A   Overcast
5:15 PM 73.4 °F 64.4 °F 73% 29.84 in 10.0 mi WNW 8.1 mph 19.6 mph N/A   Mostly Cloudy
5:35 PM 73.4 °F 64.4 °F 73% 29.85 in 10.0 mi WNW 8.1 mph - N/A   Scattered Clouds
5:55 PM 73.4 °F 64.4 °F 73% 29.85 in 10.0 mi West 6.9 mph - N/A   Mostly Cloudy
6:15 PM 73.4 °F 64.4 °F 73% 29.85 in 10.0 mi West 8.1 mph - N/A   Overcast
6:35 PM 73.4 °F 64.4 °F 73% 29.85 in 10.0 mi WNW 4.6 mph - N/A   Mostly Cloudy
6:55 PM 71.6 °F 64.4 °F 78% 29.86 in 10.0 mi Calm Calm - N/A   Mostly Cloudy
7:15 PM 73.4 °F 64.4 °F 73% 29.87 in 10.0 mi WNW 4.6 mph - N/A   Mostly Cloudy
7:35 PM 71.6 °F 64.4 °F 78% 29.87 in 10.0 mi NW 3.5 mph - N/A   Mostly Cloudy
7:55 PM 71.6 °F 64.4 °F 78% 29.87 in 10.0 mi NW 4.6 mph - N/A   Overcast
8:15 PM 71.6 °F 62.6 °F 73% 29.88 in 10.0 mi WNW 5.8 mph - N/A   Overcast
8:35 PM 71.6 °F 62.6 °F 73% 29.89 in 10.0 mi NW 4.6 mph - N/A   Scattered Clouds
8:55 PM 69.8 °F 62.6 °F 78% 29.89 in 10.0 mi NW 3.5 mph - N/A   Clear
9:15 PM 69.8 °F 62.6 °F 78% 29.90 in 10.0 mi WNW 8.1 mph - N/A   Partly Cloudy
9:35 PM 69.8 °F 62.6 °F 78% 29.90 in 10.0 mi WNW 4.6 mph - N/A   Partly Cloudy
9:55 PM 68.0 °F 62.6 °F 83% 29.91 in 10.0 mi NNW 9.2 mph - N/A   Scattered Clouds
10:15 PM 68.0 °F 60.8 °F 78% 29.92 in 10.0 mi NNW 9.2 mph - N/A   Mostly Cloudy
10:35 PM 68.0 °F 60.8 °F 78% 29.94 in 10.0 mi NNW 4.6 mph - N/A   Scattered Clouds
10:55 PM 66.2 °F 60.8 °F 83% 29.94 in 10.0 mi NW 3.5 mph - N/A   Clear
11:15 PM 66.2 °F 60.8 °F 83% 29.95 in 10.0 mi WNW 3.5 mph - N/A   Clear
11:35 PM 64.4 °F 59.0 °F 83% 29.95 in 10.0 mi Calm Calm - N/A   Clear
11:55 PM 64.4 °F 59.0 °F 83% 29.95 in 10.0 mi NW 3.5 mph - N/A   Clear